Waterbury, CT

4:42 PM EDT on August 24, 2016 (GMT -0400)
Waterbury-Oxford

Weather History for KOXC - October, 2012

Change the Weather History Date:

Monday, October 8, 2012

  Actual Average Record
Temperature  
Mean Temperature 44 °F -  
Max Temperature 51 °F 60 °F 82 °F (2007)
Min Temperature 37 °F 42 °F 28 °F (1999)
Degree Days  
Heating Degree Days 21    
Moisture  
Dew Point 39 °F    
Average Humidity 81    
Maximum Humidity 93    
Minimum Humidity 58    
Precipitation  
Precipitation 0.00 in - - ()
Sea Level Pressure  
Sea Level Pressure 30.21 in    
Wind  
Wind Speed 2 mph (NNW)    
Max Wind Speed 7 mph    
Max Gust Speed -    
Visibility 9 miles    
Events      
Averages and records for this station are not official NWS values.
T = Trace of Precipitation, MM = Missing Value Source: NWS Daily Summary

Daily Weather History Graph

Daily Weather History Graph

Search for Another Location

Airport or City:

Trip Planner

Search our weather history database for the weather conditions in past years. The results will help you decide how hot, cold, wet, or windy it might be!

Date:

Astronomy

Oct. 08, 2012 Rise Set
Actual Time 6:57 AM EDT 6:21 PM EDT
Civil Twilight 6:29 AM EDT 6:49 PM EDT
Nautical Twilight 5:57 AM EDT 7:21 PM EDT
Astronomical Twilight 5:25 AM EDT 7:53 PM EDT
Moon No Moon Rise 2:13 PM EDT (10/8)
Length of Visible Light 12h 20m
Length of Day
11h 24m
Waning Gibbous, 46% of the Moon is Illuminated
Oct 8
Waning Gibbous
Oct 15
New
Oct 21
First Quarter
Oct 29
Full
Nov 6
Last Quarter

Hourly Weather History & Observations

Time (EDT) Temp. Windchill Dew Point Humidity Pressure Visibility Wind Dir Wind Speed Gust Speed Precip Events Conditions
12:15 AM 44.6 °F - 39.2 °F 81% 30.11 in 10.0 mi Calm Calm - N/A   Overcast
12:35 AM 44.6 °F - 39.2 °F 81% 30.11 in 10.0 mi Calm Calm - N/A   Overcast
12:55 AM 42.8 °F - 39.2 °F 87% 30.11 in 10.0 mi Calm Calm - N/A   Scattered Clouds
1:15 AM 42.8 °F - 37.4 °F 81% 30.12 in 10.0 mi Calm Calm - N/A   Clear
1:35 AM 42.8 °F - 37.4 °F 81% 30.12 in 3.0 mi Calm Calm - N/A   Clear
1:55 AM 41.0 °F - 37.4 °F 87% 30.12 in 8.0 mi Calm Calm - N/A   Clear
2:15 AM 39.2 °F - 37.4 °F 93% 30.12 in 6.0 mi Calm Calm - N/A   Clear
2:35 AM 41.0 °F 38.0 °F 37.4 °F 87% 30.12 in 7.0 mi NNW 4.6 mph - N/A   Clear
2:55 AM 39.2 °F 35.9 °F 37.4 °F 93% 30.12 in 3.0 mi NW 4.6 mph - N/A   Clear
3:15 AM 39.2 °F 37.0 °F 37.4 °F 93% 30.12 in 8.0 mi NW 3.5 mph - N/A   Clear
3:35 AM 39.2 °F 35.0 °F 37.4 °F 93% 30.13 in 10.0 mi NW 5.8 mph - N/A   Clear
3:55 AM 39.2 °F 35.9 °F 37.4 °F 93% 30.13 in 10.0 mi NW 4.6 mph - N/A   Clear
4:15 AM 39.2 °F 35.0 °F 37.4 °F 93% 30.15 in 10.0 mi NW 5.8 mph - N/A   Clear
4:35 AM 41.0 °F 37.1 °F 37.4 °F 87% 30.14 in 10.0 mi NW 5.8 mph - N/A   Clear
4:55 AM 39.2 °F 35.9 °F 37.4 °F 93% 30.14 in 10.0 mi NNW 4.6 mph - N/A   Clear
5:15 AM 39.2 °F 37.0 °F 35.6 °F 87% 30.15 in 10.0 mi NNW 3.5 mph - N/A   Clear
5:35 AM 37.4 °F 34.9 °F 32.0 °F 81% 30.15 in 4.0 mi North 3.5 mph - N/A   Clear
5:45 AM - - - N/A% 30.15 in 5.0 mi Calm Calm - N/A   Clear
6:45 AM 37.4 °F - 35.6 °F 93% 30.18 in 6.0 mi Calm Calm - N/A   Clear
7:45 AM 39.2 °F - 37.4 °F 93% 30.22 in 6.0 mi Calm Calm - N/A   Clear
8:45 AM 42.8 °F - 39.2 °F 87% 30.25 in 10.0 mi Calm Calm - N/A   Clear
9:50 AM 48.2 °F - 39.2 °F 71% 30.27 in 10.0 mi NNW 5.8 mph - N/A   Mostly Cloudy
10:45 AM 48.2 °F - 39.2 °F 71% 30.27 in 10.0 mi North 6.9 mph - N/A   Mostly Cloudy
11:45 AM 51.8 °F - 41.0 °F 67% 30.26 in 10.0 mi NNE 5.8 mph - N/A   Mostly Cloudy
12:45 PM 51.8 °F - 37.4 °F 58% 30.26 in 10.0 mi NNW 6.9 mph - N/A   Mostly Cloudy
1:45 PM 51.8 °F - 37.4 °F 58% 30.27 in 10.0 mi Calm Calm - N/A   Mostly Cloudy
2:45 PM 51.8 °F - 37.4 °F 58% 30.27 in 10.0 mi SSW 4.6 mph - N/A   Mostly Cloudy
3:45 PM 51.8 °F - 37.4 °F 58% 30.25 in 10.0 mi Calm Calm - N/A   Overcast
4:45 PM 51.8 °F - 39.2 °F 62% 30.26 in 10.0 mi SSW 3.5 mph - N/A   Overcast
5:45 PM 50.0 °F - 39.2 °F 66% 30.29 in 10.0 mi Calm Calm - N/A   Overcast
6:45 PM 48.2 °F - 41.0 °F 76% 30.30 in 10.0 mi South 4.6 mph - N/A   Overcast
7:45 PM 46.4 °F - 42.8 °F 87% 30.28 in 10.0 mi Calm Calm - N/A   Overcast
8:55 PM 46.4 °F - 42.8 °F 87% 30.29 in 10.0 mi Calm Calm - N/A   Partly Cloudy
9:15 PM 46.4 °F - 42.8 °F 87% 30.29 in 10.0 mi Calm Calm - N/A   Mostly Cloudy
9:35 PM 46.4 °F - 42.8 °F 87% 30.30 in 10.0 mi Calm Calm - N/A   Overcast
9:55 PM 46.4 °F - 42.8 °F 87% 30.29 in 10.0 mi Calm Calm - N/A   Overcast
10:15 PM 46.4 °F - 41.0 °F 81% 30.29 in 10.0 mi Calm Calm - N/A   Overcast
10:35 PM 46.4 °F 45.2 °F 41.0 °F 81% 30.30 in 10.0 mi NW 3.5 mph - N/A   Mostly Cloudy
10:55 PM 46.4 °F 45.2 °F 41.0 °F 81% 30.29 in 10.0 mi North 3.5 mph - N/A   Partly Cloudy
11:15 PM 44.6 °F 43.1 °F 41.0 °F 87% 30.29 in 10.0 mi NNE 3.5 mph - N/A   Clear
11:55 PM 46.4 °F 43.5 °F 41.0 °F 81% 30.27 in 10.0 mi NE 5.8 mph - N/A   Clear